Regional Weather Roundup
Issued by NWS

Home | Current Version | Previous Version | Text Only | Print | Product List | Glossary On
Versions: 1 2 3 4 5 6 7 8 9 10 11 12 13 14 15 16 17 18 19 20 21 22 23 24 25 26 27 28 29 30 31 32 33 34 35 36 37 38 39 40 41 42 43 44 45 46 47 48 49 50
000
ASUS44 KFWD 292115
RWRTX
NORTH TEXAS HOURLY WEATHER ROUNDUP
NATIONAL WEATHER SERVICE FORT WORTH TX
400 PM CDT TUE JUL 29 2014

NOTE: "FAIR" INDICATES FEW OR NO CLOUDS BELOW 12,000 FEET WITH NO
SIGNIFICANT WEATHER AND/OR OBSTRUCTIONS TO VISIBILITY.

TXZ118-119-292200-
DALLAS/FORT WORTH METROPLEX

CITY           SKY/WX    TMP DP  RH WIND       PRES   REMARKS
DFW AIRPORT    CLOUDY    80  58  46 CALM      30.11F
DALLAS LOVE    CLOUDY    81  62  52 NW3       30.11F
FTW MEACHAM    CLOUDY    81  66  60 CALM      30.11F
DAL-EXECUTIVE  LGT RAIN  81  68  64 N5        30.11F
FTW-ALLIANCE   LGT RAIN  77  62  59 CALM      30.11F
FTW-NAS-JRB    CLOUDY    81  65  58 CALM      30.16F
FTW-SPINKS     LGT RAIN  75  66  73 CALM      30.13F
ARLINGTON      CLOUDY    81  64  56 CALM      30.11F
GRAND PRAIRIE  SUNNY     79  63  57 CALM      30.12F
ADDISON        PTSUNNY   82  63  51 W5        30.14F
MESQUITE       SUNNY     84  63  48 W3        30.11F
LANCASTER      LGT RAIN  83  61  47 W3        30.11F
$$

TXZ091>094-102>105-117-120-121-131>134-292200-
NORTH CENTRAL TEXAS

CITY           SKY/WX    TMP DP  RH WIND       PRES   REMARKS
SHRMAN/DENISON MOSUNNY   90  60  36 SW7       30.12F
GAINESVILLE    PTSUNNY   86  58  38 S7        30.15F
BOWIE          CLOUDY    73  64  73 CALM      30.16R
BRIDGEPORT     CLOUDY    76  64  65 CALM      30.15F
DECATUR        CLOUDY    76  63  63 CALM      30.14F
DENTON         LGT RAIN  79  59  50 CALM      30.12F
MCKINNEY       PTSUNNY   86  64  47 W9        30.11F
GREENVILLE       N/A     91  54  27 S3        30.11F
ROCKWALL       CLOUDY    85  64  48 SW6       30.10F
TERRELL        CLOUDY    88  62  41 W10       30.11F
WAXAHACHIE     CLOUDY    80  61  53 CALM      30.13F
CLEBURNE       CLOUDY    82  63  51 E8        30.13F
GRANBURY       PTSUNNY   83  62  49 NE5       30.13F
$$

TXZ083>090-098>101-113>116-127>130-139>142-154-155-292200-
WESTERN NORTH TEXAS

CITY           SKY/WX    TMP DP  RH WIND       PRES   REMARKS
WICHITA FALLS  CLOUDY    77  62  59 NE3       30.15F
WF-KICKAPOO    CLOUDY    78  58  49 SE5       30.17F
VERNON         PTSUNNY   79  62  56 E6        30.17F
ABILENE        PTSUNNY   90  64  42 SE12G17   30.12S HX  91
ABILENE-DYESS  PTSUNNY   91  67  45 E14       30.07F HX  94
BRECKENRIDGE   MOSUNNY   92  59  32 E14       30.10F HAZE    HX  91
GRAHAM         CLOUDY    83  62  50 E8        30.13S
MINERAL WELLS  PTSUNNY   79  62  56 E12       30.12F
STEPHENVILLE   SUNNY     88  56  33 E10G18    30.15F
COMANCHE       MOSUNNY   91  64  39 E9G18     30.11F HX  93
BROWNWOOD      MOSUNNY   91  66  43 E17       30.09F HX  94
COLEMAN        MOSUNNY   94  62  34 SE5       30.09F HX  94
BRADY          MOSUNNY   91  64  40 E7        30.08F HX  93
$$

TXZ143>147-156>162-174-175-292200-
CENTRAL TEXAS

CITY           SKY/WX    TMP DP  RH WIND       PRES   REMARKS
WACO           PTSUNNY   91  58  32 NE15      30.09F HX  90
WACO-MCGREGOR  MOSUNNY   93  63  36 NE14G21   30.10F HX  94
HILLSBORO      CLOUDY    84  61  45 E3        30.12F
CORSICANA      CLOUDY    84  66  54 VRB3      30.11F
MEXIA          CLOUDY    77  68  73 CALM      30.10F
HEARNE         PTSUNNY  N/A N/A N/A E6        30.07F
CAMERON        MOSUNNY   91  74  58 E9        30.07F HX 100
TEMPLE         MOSUNNY   91  66  43 E8G20     30.09F HX  94
KILLEEN        PTSUNNY   88  72  58 SE15G25   30.09S HX  94
KILLEEN-SKYLRK PTSUNNY   82  72  69 E8        30.09F
FORT HOOD      PTSUNNY   90  73  58 E13       30.09F HX  98
GATESVILLE     MOSUNNY   90  64  43 E10G18    30.10F HX  91
HAMILTON       SUNNY     89  65  44 E14       30.12F HX  91
LAMPASAS       PTSUNNY   88  73  60 NE13G26   30.08S HX  95
$$

TXZ095>097-106>112-122>126-135>138-148>153-164>167-292200-
EAST TEXAS

CITY           SKY/WX    TMP DP  RH WIND       PRES   REMARKS
PARIS          MOSUNNY   90  61  37 NW7       30.11F
SULPHUR SPRNGS MOSUNNY   90  60  36 CALM      30.12F
CLARKSVILLE    SUNNY     90  57  33 N6        30.09F
MOUNT PLEASANT MOSUNNY   89  60  37 NW3       30.10F
GILMER         SUNNY     88  64  45 CALM      30.10F
MINEOLA        SUNNY     90  57  33 N3        30.11S
TYLER          MOSUNNY   92  61  35 NW8       30.09F HX  92
LONGVIEW       MOSUNNY   91  60  35 CALM      30.07F HX  90
MARSHALL       MOSUNNY   91  65  42 N5        30.09F HX  93
ATHENS         CLOUDY    84  70  61 NW3       30.09F
JACKSONVILLE   MOSUNNY   89  66  47 CALM      30.12S HX  91
HENDERSON      SUNNY     91  63  39 CALM      30.09F HX  91
NACOGDOCHES    MOSUNNY   90  66  45 N6        30.08S HX  92
LUFKIN         SUNNY     93  69  45 VRB5      30.07S HX  98
$$

SUPPLEMENTAL OBSERVATIONS (CENTRAL)

CITY           SKY/WX    TMP DP  RH WIND       PRES   REMARKS
LAKE TEXOMA      N/A     88  52  29 N3          N/A
CADDO GRASSLND   N/A     91  64  40 N3          N/A  HX  93
PAT MAYSE LAKE   N/A     88  55  33 S6          N/A
GREENVILLE       N/A    N/A N/A N/A W2          N/A
CEDAR HILL       N/A     81  66  61 S1          N/A
ATHENS           N/A     88  68  51 W5          N/A  HX  91
MCGREGOR         N/A     93  57  29 E14         N/A  HX  92
$$

SUPPLEMENTAL OBSERVATIONS (WEST)

CITY           SKY/WX    TMP DP  RH WIND       PRES   REMARKS
MILLERS CREEK    N/A     90  59  35 SE12        N/A
LBJ GRASSLAND    N/A     75  64  69 SE3         N/A
HAMBY            N/A     93  64  38 SE9         N/A  HX  95
IVIE RESERVOIR   N/A     95  63  34 E8          N/A  HX  96
COLORADO BEND    N/A     82  68  61 E8G17       N/A
$$

SUPPLEMENTAL OBSERVATIONS (EAST)

CITY           SKY/WX    TMP DP  RH WIND       PRES   REMARKS
CLARKSVILLE      N/A     91  59  33 N3          N/A  HX  90
TEXARKANA        N/A     90  61  37 N5          N/A
CADDO LAKE       N/A    N/A N/A N/A NE5         N/A
GILMER           N/A     90  61  37 NW3         N/A
HENDERSON        N/A     91  63  38 CALM        N/A  HX  92
N SABINE NF      N/A     90  66  45 MISG        N/A  HX  92
S SABINE NF      N/A     90  68  48 SE3         N/A  HX  93
$$

SUPPLEMENTAL OBSERVATIONS ARE A COLLECTION OF AUTOMATED INSTRUMENTS
THAT ARE MAINTAINED BY A VARIETY OF FEDERAL AND STATE AGENCIES.
CERTAIN ELEMENTS...SUCH AS HUMIDITY VALUES AND SUSTAINED WIND
SPEEDS...MAY BE APPROXIMATED.




USA.gov is the U.S. government's official web portal to all federal, state and local government web resources and services.